User: anonymous   Login
Location: Bandys
(35.4750°N, 81.0830°W)
Time: 21:36:51
(UTC-04:00)
Language:

DELTA 2 R/B (1) - Orbit

View from above orbital plane
View from above orbital plane
View from above satellite
View from above satellite

Ground track
Ground track

The orbit data is extracted from the following two-line orbital elements,

1 27665U 03005C   14295.44459162  .00000080  00000-0  65771-4 0  1473
2 27665 039.5768 002.3748 0008123 093.7263 337.4696 14.28235437612381
Epoch (UTC): 22 October 2014 10:40:12
Eccentricity: 0.0008123
inclination: 39.5768°
perigee height: 792 km
apogee height: 803 km
right ascension of ascending node: 2.3748°
argument of perigee: 93.7263°
revolutions per day: 14.28235437
mean anomaly at epoch: 337.4696°
orbit number at epoch: 61238

The dashed part of the orbit path shows where the satellite is in the earth's shadow,  

DLR